Temperature
20 21 21 21 23 23 23 22 21 19 19 17 16 17 18 19 19 17 13 12 12 11 10 9 10 10 10 10 10 9 9 8 8 7 7 7 6 6 6 6 5 5 5 5 5 5 5 6 6
20 20 21 22 23 23 23 22 20 20 18 14 14 15 17 17 14 14 14 13 11 10 10 9 10 10 10 10 10 10 9 9 8 8 7 7 6 6 6 5 5 5 5 5 5 5 5 5 6
20 21 22 24 23 23 23 22 21 17 14 15 15 15 16 17 13 14 14 13 11 10 10 10 10 10 10 10 10 10 10 9 9 8 7 7 6 6 6 5 5 5 5 5 5 5 5 6 6
20 21 22 24 23 23 22 21 19 16 14 14 15 16 14 14 14 14 14 13 12 10 10 10 11 11 11 10 10 10 10 9 9 9 8 7 7 6 6 5 5 5 4 4 5 5 5 6 6
20 22 23 23 23 22 21 18 17 18 17 15 15 17 16 15 15 15 14 13 12 11 10 10 10 10 10 10 10 10 10 10 9 9 8 8 7 7 6 5 5 5 4 4 5 5 6 6 6
21 23 23 22 23 22 20 17 16 18 18 15 14 17 17 15 15 15 14 13 11 11 10 10 10 10 10 10 10 10 10 9 9 9 8 8 7 7 6 6 5 5 5 5 5 6 6 6 6
22 23 22 23 22 22 20 16 17 18 18 16 15 17 16 14 14 14 13 12 11 10 10 10 9 10 10 10 10 10 9 9 9 9 8 8 7 7 6 5 5 5 5 5 6 6 6 6 5
21 23 22 22 22 22 19 15 15 16 17 15 14 17 18 14 14 14 12 11 11 11 10 10 9 9 9 9 10 9 9 9 9 8 8 7 7 6 6 6 6 6 5 6 6 5 5 5 5
19 22 22 22 22 22 18 16 15 14 15 13 13 14 14 15 14 13 12 12 11 11 11 10 9 9 9 9 9 9 9 8 8 8 7 7 7 6 6 6 6 5 5 5 5 5 5 4 4
20 22 22 22 22 21 17 17 16 14 15 15 13 13 15 15 14 14 14 13 13 12 11 11 10 9 9 9 9 8 8 8 8 7 7 7 6 6 6 6 5 5 5 5 5 5 4 4 4
20 22 21 18 17 17 16 16 15 16 17 17 16 15 15 14 14 14 14 14 14 13 12 11 11 10 9 9 9 8 8 8 7 7 7 7 6 6 6 6 5 5 5 4 4 4 4 3 3
19 19 17 17 14 15 16 16 15 15 18 18 16 16 16 15 15 15 15 14 14 13 13 12 11 10 9 9 8 8 8 8 7 7 7 6 6 6 6 6 5 5 4 4 4 3 3 3 3
19 18 15 14 13 14 14 15 16 16 16 15 15 15 16 16 16 16 15 14 14 14 13 12 11 10 10 9 8 8 8 8 7 7 7 6 6 6 6 5 5 5 4 4 3 3 3 2 2
17 16 15 15 14 14 14 16 14 16 17 15 14 14 15 15 16 15 15 14 14 14 13 13 12 11 10 9 9 8 8 8 7 7 7 6 6 6 6 5 5 4 4 3 3 3 2 2 2
14 17 18 16 15 15 14 17 17 18 16 16 15 15 15 15 15 15 15 15 15 15 14 13 12 11 10 9 9 8 8 7 7 7 6 6 6 6 5 5 5 4 4 3 3 2 2 1 1
17 19 20 19 16 14 15 20 22 20 17 17 17 16 15 16 16 17 16 15 15 15 14 13 12 12 11 10 9 8 8 7 7 7 6 6 6 6 5 5 4 4 3 3 2 2 1 1 0
20 21 21 20 16 15 16 19 22 20 17 17 18 18 17 15 16 17 17 16 16 15 14 13 13 12 11 10 9 8 8 8 7 7 7 6 6 6 5 5 4 4 3 3 2 2 1 0 -0
20 20 20 20 19 16 16 18 21 21 18 18 18 18 18 16 16 17 17 17 16 15 14 14 13 12 11 10 9 9 8 8 7 7 7 6 6 6 5 5 4 4 3 3 2 1 1 0 -1
19 19 19 20 18 15 17 19 20 21 20 19 18 18 18 17 16 15 15 17 16 15 15 14 14 13 12 11 10 10 9 9 8 8 7 7 6 6 5 5 4 4 3 2 2 1 0 -1 -2
17 18 19 20 16 15 17 18 20 20 19 18 18 17 17 16 15 14 13 15 16 16 16 15 15 14 13 12 12 11 10 9 9 9 8 7 7 6 5 5 4 4 3 2 2 1 0 -1 -2
18 18 19 18 17 16 15 19 22 22 19 18 17 16 16 15 15 14 13 15 16 16 16 16 16 15 14 13 12 11 10 9 9 9 9 8 7 6 6 5 4 4 3 2 2 1 -0 -1 -3
18 17 16 15 17 18 16 18 21 22 21 21 20 19 17 16 15 15 15 16 17 17 17 16 16 15 15 14 13 12 12 12 12 11 11 10 9 7 6 5 5 4 3 2 2 1 0 -1 -2
17 15 15 15 16 17 17 17 21 22 22 22 21 19 17 16 16 16 17 17 18 17 17 17 16 16 15 15 14 13 13 13 11 11 11 10 10 9 7 6 5 4 3 3 2 1 0 -1 -2
15 15 14 14 16 17 17 17 20 23 22 21 20 19 17 16 16 16 17 18 18 18 18 17 17 17 16 15 15 14 14 13 12 11 11 11 10 10 8 7 5 4 3 3 2 1 -0 -1 -1
15 17 19 19 18 19 15 15 19 22 21 19 18 17 16 16 16 16 16 17 17 18 18 18 17 17 17 16 16 15 15 14 13 12 11 11 11 11 10 8 6 5 4 3 2 1 -0 -1 -2
16 17 18 18 19 19 15 16 20 21 19 18 17 17 16 16 16 15 15 16 16 17 17 17 17 17 17 16 16 16 15 14 14 13 12 11 11 11 9 8 6 5 4 3 2 1 -0 -1 -2
16 16 16 17 17 16 17 17 18 20 21 19 19 17 16 16 15 14 15 15 16 16 16 16 16 16 16 15 15 15 15 14 14 13 12 11 11 10 8 7 5 4 3 2 1 1 -0 -1 -1
14 15 15 16 16 17 18 17 19 21 21 20 18 17 16 15 14 14 14 15 15 15 15 15 15 15 15 14 14 14 14 14 13 12 12 11 10 8 7 6 4 3 2 2 1 0 -0 -1 -1
14 14 15 16 16 16 17 18 19 19 19 17 17 16 15 13 13 13 13 14 14 14 15 15 15 15 14 14 14 14 13 13 13 12 12 10 9 7 6 4 2 2 1 1 1 0 -0 -1 -2
14 15 15 16 17 15 16 17 20 19 17 16 16 15 13 12 12 12 12 13 13 13 14 14 14 14 14 13 13 13 13 13 12 12 11 10 8 6 4 3 1 0 0 0 0 -0 -1 -1 -2
Wind_Speed
1 1 2 3 4 4 3 1 2 5 5 4 4 4 4 3 3 1 6 12 15 17 16 16 14 13 11 10 9 9 9 10 11 11 12 13 14 15 15 16 17 17 18 19 20 20 20 21 22
1 2 3 3 6 6 3 2 5 5 4 6 5 4 4 4 1 5 9 13 17 17 15 15 15 14 12 10 9 9 9 10 10 10 11 12 12 13 14 15 15 16 17 18 18 19 20 20 21
2 1 3 4 8 7 5 1 3 5 6 7 6 5 4 2 5 7 11 18 17 16 15 15 16 14 12 11 10 9 9 9 9 9 10 11 11 12 13 13 14 15 15 16 17 18 18 19 20
2 3 3 7 8 4 3 1 5 9 7 6 6 5 4 2 3 7 15 20 18 17 16 16 16 15 13 11 10 9 9 9 9 9 9 10 10 11 11 12 12 13 14 15 16 16 17 18 19
2 3 7 10 9 3 2 2 7 10 9 9 8 5 5 6 5 11 17 19 17 17 16 16 17 15 14 12 11 10 9 9 9 8 8 9 9 9 9 10 11 11 12 13 14 15 16 17 18
2 4 9 11 11 4 3 6 7 10 9 8 8 6 3 7 10 14 17 17 17 17 16 15 17 16 14 13 12 11 10 9 9 8 8 8 8 8 8 8 9 10 10 12 13 13 15 16 17
3 6 11 13 12 10 4 7 7 9 12 10 7 6 5 9 12 14 17 17 17 17 16 15 16 17 16 14 13 12 11 10 10 9 8 7 7 7 7 7 7 8 9 10 11 12 13 14 15
2 6 12 12 14 14 4 8 5 9 8 5 7 8 4 9 15 15 16 15 15 16 17 16 15 16 16 15 15 13 12 11 10 10 9 8 7 6 6 5 6 6 7 8 9 10 11 12 13
2 8 14 14 13 11 7 8 6 5 7 6 7 5 3 12 18 17 15 15 16 16 17 17 17 16 15 14 15 15 14 12 12 11 10 8 6 5 4 5 5 5 5 6 7 8 9 8 10
4 10 14 8 8 6 7 8 7 7 11 10 10 10 7 14 19 20 21 22 21 21 20 19 18 17 16 14 14 13 13 13 12 11 10 8 6 5 5 5 4 4 4 4 5 6 6 6 6
4 8 7 3 3 3 5 7 6 9 13 15 15 17 16 17 20 21 23 23 23 22 21 19 20 19 18 15 14 12 12 12 12 12 11 9 8 7 6 5 5 4 2 1 1 2 4 5 6
4 4 3 3 2 4 6 5 8 14 14 7 11 11 19 21 23 24 24 23 22 22 23 21 22 20 19 17 15 14 13 12 12 13 14 11 9 8 7 6 6 5 3 2 1 1 2 3 4
5 3 3 4 5 6 7 11 10 16 18 12 7 12 19 22 23 24 23 21 21 22 22 22 23 22 20 18 16 15 15 14 14 14 15 14 11 10 9 8 7 6 5 4 2 1 2 3 4
2 3 5 5 6 5 8 12 9 19 14 16 17 18 20 22 24 22 23 23 23 23 23 22 23 24 22 19 17 16 16 15 15 15 16 16 13 11 10 9 8 7 6 5 3 2 3 4 5
2 4 7 6 5 4 6 13 13 19 10 15 18 20 21 22 22 25 25 25 25 24 23 23 23 24 23 21 20 17 16 16 15 15 17 18 16 14 12 10 9 9 8 6 5 4 4 5 6
3 5 5 3 5 3 5 16 14 9 12 17 18 19 20 22 23 24 24 23 23 22 22 23 19 22 23 22 20 17 17 17 16 16 17 19 18 16 14 11 10 10 9 8 7 6 5 5 6
4 6 8 5 5 4 7 18 22 9 12 19 20 20 20 21 23 24 23 23 22 22 22 22 23 23 22 22 20 19 17 18 17 17 17 19 20 19 16 13 11 12 10 9 8 7 6 6 7
6 9 11 10 3 6 12 22 28 20 17 22 23 22 21 21 23 21 22 22 21 21 21 21 22 22 21 19 17 15 16 17 18 18 19 20 20 21 18 14 14 13 10 9 8 8 8 7 7
8 11 16 15 4 6 16 24 29 25 19 21 21 21 21 22 20 17 18 20 20 21 21 22 22 23 20 17 17 17 17 15 15 18 21 22 22 22 21 16 15 15 11 11 11 9 9 8 7
8 11 15 11 2 6 15 25 26 20 14 14 16 16 16 17 15 15 16 17 20 22 22 23 24 23 23 19 18 15 15 14 16 17 21 24 24 23 21 20 16 16 12 13 12 11 9 8 8
9 9 11 9 8 6 9 13 11 8 5 8 8 9 10 11 12 12 14 17 19 21 23 21 24 24 24 22 15 13 13 12 14 17 17 23 25 25 24 23 20 17 15 13 14 13 13 10 9
8 4 7 7 8 6 5 8 11 9 10 10 13 12 11 8 7 8 10 14 18 19 18 20 21 22 22 22 20 21 18 19 19 16 16 19 25 26 26 25 23 19 16 15 15 14 13 12 10
4 1 3 5 6 7 4 5 10 7 9 15 15 15 14 12 9 7 8 11 14 16 17 17 19 20 21 23 23 23 22 20 16 16 18 19 20 26 27 26 23 20 17 17 16 15 15 13 12
2 2 2 2 3 4 2 4 8 4 7 11 13 14 15 14 12 9 7 7 10 13 15 17 19 21 22 23 24 26 26 23 20 20 18 17 16 18 25 26 24 22 18 18 17 16 17 15 14
3 5 4 3 3 3 2 6 10 9 7 8 11 13 14 14 14 13 10 8 7 11 14 16 19 21 22 23 25 26 26 25 24 22 20 19 16 17 22 22 22 20 20 20 18 17 17 17 16
2 4 4 5 6 6 3 7 9 10 9 7 6 9 13 17 16 14 12 10 8 8 11 15 18 19 20 22 23 23 23 19 19 22 20 19 17 18 19 23 22 22 22 20 18 16 16 15 16
2 3 2 5 6 7 7 7 12 10 3 5 10 15 18 18 17 16 15 12 10 8 8 12 15 16 17 19 20 21 22 22 21 20 20 19 18 16 20 21 22 22 21 21 19 15 17 16 16
2 2 3 4 5 7 7 7 7 10 13 14 16 18 19 18 16 16 14 14 12 10 8 7 11 13 14 16 17 16 19 21 21 19 22 21 20 19 19 21 22 22 22 21 19 16 16 17 16
4 4 5 5 5 6 9 8 6 11 12 13 16 18 17 15 14 14 13 13 12 11 9 7 6 9 11 13 15 17 18 18 19 20 21 20 19 19 20 20 20 21 22 21 20 19 18 18 17
4 5 6 6 8 8 10 12 9 9 7 11 16 16 13 12 12 13 14 14 14 13 12 9 7 8 9 11 13 15 16 17 18 20 20 19 19 19 19 19 20 21 21 21 21 21 20 19 18
Wind_Direction
171 200 211 224 230 245 282 98 172 167 175 155 157 190 213 226 265 27 128 154 149 152 155 155 153 147 139 130 119 108 96 87 80 75 72 69 64 62 58 56 54 52 51 49 47 46 45 45 44
142 211 208 225 249 255 269 164 198 185 148 147 173 202 220 227 108 122 151 161 158 155 157 156 153 151 145 138 128 116 104 94 85 79 75 71 65 62 59 56 54 51 50 48 47 44 43 44 43
160 244 212 223 247 266 294 176 190 141 150 173 185 217 246 216 167 167 163 162 162 160 160 156 158 156 151 144 135 124 112 102 92 83 79 75 68 63 60 56 54 50 49 48 47 44 42 41 40
218 191 212 239 247 266 307 139 166 162 174 202 204 209 218 200 163 161 156 163 167 165 164 162 163 161 157 152 144 134 123 112 102 92 85 79 72 66 63 59 54 51 49 48 47 44 42 40 38
227 219 227 240 252 243 225 195 181 191 188 194 205 227 210 162 150 153 162 168 171 169 169 168 168 167 165 160 153 144 134 124 114 103 94 87 80 71 66 62 56 52 50 49 47 45 42 40 37
194 232 243 250 256 240 216 194 188 213 206 188 206 233 207 147 163 163 166 173 175 173 173 174 175 174 172 168 162 155 147 138 128 117 106 96 88 80 71 67 61 54 51 50 48 46 43 39 37
239 246 255 265 271 269 223 178 205 219 212 201 200 219 177 174 171 166 169 175 180 180 180 181 181 180 179 177 172 166 159 151 142 132 121 110 99 90 78 72 67 58 54 52 50 48 45 40 36
275 254 258 261 269 278 191 178 223 221 219 191 199 225 202 171 164 166 171 179 185 188 189 187 186 183 182 182 180 175 169 164 156 146 137 126 115 106 94 86 76 66 58 55 53 50 46 41 37
238 252 259 264 269 278 180 194 205 215 217 203 217 235 80 142 157 166 175 186 192 196 196 194 191 187 186 185 181 181 178 174 168 162 154 152 152 145 136 100 91 79 64 59 55 49 45 43 39
222 252 263 275 268 271 195 213 202 203 221 223 221 211 158 159 170 178 187 193 196 198 198 197 197 192 190 187 184 186 183 178 182 177 173 176 173 168 158 130 117 102 82 71 56 49 40 30 22
234 256 270 246 249 255 213 220 213 221 234 228 224 207 181 179 186 194 199 201 201 199 197 200 199 197 195 191 189 188 186 184 189 191 189 186 181 178 184 181 172 169 166 148 69 29 28 22 16
246 250 265 262 232 230 232 229 224 228 245 246 234 207 181 189 195 202 205 206 203 201 201 200 200 200 200 198 196 195 193 193 193 194 195 192 191 193 193 199 194 196 196 198 242 355 11 1 352
240 255 250 256 241 243 250 243 251 249 247 238 219 194 195 200 205 209 210 209 205 205 204 203 201 201 201 202 202 202 202 200 198 194 197 199 198 198 198 199 200 202 201 205 221 272 318 317 317
260 254 256 251 242 243 255 260 251 260 247 232 224 217 212 211 210 210 211 211 209 207 206 203 202 203 201 202 204 205 205 203 201 199 200 201 204 202 201 202 203 204 204 206 217 246 278 290 293
220 269 257 231 231 250 272 266 239 252 236 231 229 228 225 222 217 215 212 211 210 208 206 204 203 203 203 205 207 207 206 203 203 203 202 202 206 206 204 206 206 205 202 204 214 224 251 269 277
234 258 271 196 206 218 253 274 271 254 228 241 240 234 229 227 223 222 218 215 213 209 207 205 201 203 205 207 208 209 208 206 207 205 204 205 207 207 207 209 209 203 204 210 217 226 242 252 266
236 279 293 288 203 221 241 275 284 272 243 253 254 246 237 234 228 224 220 216 213 210 206 204 202 204 205 207 208 211 211 210 210 208 206 205 206 207 208 212 209 203 206 210 214 222 234 248 258
295 296 292 293 257 235 259 274 284 282 257 262 264 259 250 243 236 226 219 216 213 210 207 204 203 205 204 205 210 212 215 216 214 212 210 206 206 207 209 212 210 205 207 209 210 219 224 240 254
284 281 287 293 290 259 273 282 287 292 283 269 268 266 260 254 250 233 219 214 212 210 207 205 203 203 202 202 206 209 213 214 215 216 213 209 208 206 208 211 209 206 210 212 212 217 226 230 236
255 276 288 298 251 260 292 289 288 292 290 286 284 282 276 269 258 238 223 214 212 210 208 207 206 204 203 205 206 210 215 219 218 217 217 213 211 208 208 211 209 208 211 213 213 213 221 227 221
259 263 287 298 310 255 302 296 297 317 326 315 310 304 299 282 269 248 227 220 216 214 211 210 208 207 206 205 205 207 213 220 217 217 217 215 213 211 210 211 211 209 209 212 211 210 216 223 219
278 275 268 283 301 304 336 305 303 331 347 21 21 16 6 349 306 270 241 225 221 220 218 217 214 212 209 205 207 205 208 215 218 217 217 215 213 213 212 212 211 211 211 213 211 211 215 221 228
277 0 260 272 279 286 259 264 290 320 0 15 19 21 19 12 355 323 273 242 229 220 217 218 218 216 212 209 211 213 220 225 225 219 220 218 214 215 213 212 210 211 211 213 211 209 212 215 224
234 242 204 202 237 257 224 260 290 331 354 351 360 10 14 10 3 349 321 269 240 222 216 214 215 217 213 212 214 217 222 224 224 221 219 218 216 215 214 212 210 210 210 210 210 210 212 215 221
232 284 287 270 255 258 146 256 261 283 315 319 328 345 356 357 355 347 338 313 265 232 221 217 217 220 214 214 217 220 224 226 227 225 222 219 218 216 213 209 210 209 209 208 207 209 213 216 220
240 271 299 301 293 298 242 249 265 290 305 304 318 342 352 354 350 343 337 324 302 263 234 225 223 225 219 218 220 223 225 227 231 229 226 224 224 222 216 210 210 209 206 205 205 209 212 216 220
235 226 318 284 279 276 261 268 288 281 295 356 357 358 354 350 346 343 341 338 329 310 269 238 232 231 227 224 225 226 225 227 231 232 231 231 229 226 219 214 212 210 206 204 203 208 211 213 219
297 207 204 248 279 280 268 263 260 292 321 341 350 351 347 347 347 347 347 345 342 335 316 275 246 240 235 229 227 230 229 230 232 233 233 231 231 227 223 217 213 210 206 204 203 208 211 212 218
180 194 225 247 259 275 287 270 258 287 322 339 342 343 343 346 348 349 349 348 346 346 340 319 279 255 244 236 233 232 234 233 233 235 236 235 233 228 225 221 216 212 207 204 203 207 207 212 218
238 237 219 251 265 250 277 281 276 289 322 335 335 339 344 349 352 354 351 350 351 349 343 332 307 277 257 246 241 240 239 237 237 238 239 236 234 230 226 222 219 215 209 205 204 206 207 211 217
Height
1561 1562 1564 1566 1565 1562 1564 1567 1569 1574 1576 1579 1580 1581 1580 1578 1579 1584 1583 1581 1584 1587 1589 1591 1592 1593 1594 1595 1595 1594 1594 1593 1592 1592 1591 1589 1588 1587 1586 1585 1583 1582 1580 1578 1576 1574 1572 1570 1568
1562 1564 1566 1566 1563 1565 1564 1565 1570 1572 1577 1580 1581 1581 1580 1579 1580 1579 1578 1580 1582 1586 1588 1590 1591 1592 1593 1594 1594 1594 1593 1593 1592 1591 1590 1589 1588 1587 1586 1584 1583 1582 1580 1578 1576 1574 1572 1570 1568
1563 1564 1567 1563 1562 1564 1563 1565 1568 1575 1578 1579 1580 1580 1580 1579 1577 1577 1577 1578 1581 1584 1587 1589 1590 1591 1592 1593 1593 1593 1593 1592 1592 1591 1590 1589 1588 1587 1585 1584 1583 1581 1580 1578 1576 1574 1572 1571 1569
1564 1566 1566 1562 1562 1562 1563 1566 1571 1575 1578 1579 1579 1578 1577 1575 1575 1575 1575 1577 1580 1583 1585 1587 1589 1590 1591 1592 1593 1593 1592 1592 1591 1590 1589 1588 1587 1586 1585 1583 1582 1581 1579 1578 1576 1574 1572 1571 1569
1564 1565 1562 1562 1561 1563 1567 1570 1572 1572 1574 1575 1577 1574 1574 1572 1572 1572 1574 1576 1578 1581 1584 1586 1587 1589 1590 1591 1591 1592 1591 1591 1590 1589 1589 1588 1586 1585 1584 1583 1581 1580 1578 1577 1575 1573 1572 1570 1569
1566 1563 1563 1562 1558 1562 1566 1569 1571 1570 1571 1573 1575 1573 1571 1569 1569 1571 1572 1574 1577 1580 1582 1584 1585 1587 1588 1589 1590 1590 1590 1590 1589 1589 1588 1587 1586 1584 1583 1582 1580 1579 1578 1576 1575 1573 1572 1570 1568
1565 1562 1561 1560 1559 1559 1564 1568 1569 1567 1568 1570 1570 1570 1568 1565 1566 1568 1570 1573 1575 1577 1579 1582 1584 1585 1586 1587 1588 1588 1588 1588 1588 1587 1586 1585 1584 1583 1582 1580 1579 1578 1576 1575 1574 1572 1571 1570 1568
1564 1562 1560 1559 1559 1557 1562 1565 1565 1566 1566 1567 1567 1566 1564 1563 1563 1565 1568 1570 1572 1574 1576 1579 1581 1583 1584 1585 1585 1586 1586 1586 1586 1585 1584 1583 1582 1581 1580 1579 1578 1577 1575 1574 1573 1572 1570 1569 1567
1563 1563 1559 1556 1557 1555 1561 1563 1564 1563 1564 1563 1561 1562 1560 1560 1560 1562 1564 1566 1568 1570 1572 1574 1577 1579 1580 1582 1582 1583 1583 1583 1583 1583 1582 1581 1580 1579 1578 1577 1576 1575 1574 1573 1572 1570 1569 1567 1565
1562 1559 1555 1555 1556 1556 1559 1560 1560 1561 1560 1558 1557 1556 1556 1556 1557 1558 1559 1561 1562 1564 1567 1569 1572 1574 1576 1578 1579 1580 1580 1580 1580 1580 1579 1579 1578 1577 1576 1575 1574 1573 1572 1571 1570 1569 1567 1566 1564
1560 1556 1555 1557 1558 1558 1558 1558 1558 1556 1552 1550 1550 1550 1550 1552 1553 1554 1555 1557 1558 1561 1562 1564 1567 1569 1571 1573 1574 1575 1576 1576 1576 1576 1576 1576 1575 1574 1574 1573 1572 1571 1570 1569 1568 1567 1565 1564 1562
1560 1558 1559 1558 1558 1557 1556 1555 1553 1550 1545 1545 1546 1546 1545 1546 1546 1548 1550 1552 1554 1555 1557 1559 1561 1563 1566 1568 1569 1570 1571 1572 1572 1572 1572 1572 1572 1571 1571 1570 1569 1568 1567 1566 1565 1564 1562 1561 1559
1559 1558 1558 1557 1556 1556 1554 1552 1549 1542 1540 1541 1540 1540 1539 1540 1541 1543 1545 1547 1548 1549 1551 1553 1555 1557 1560 1562 1563 1565 1566 1567 1568 1568 1568 1568 1568 1568 1567 1566 1566 1565 1564 1563 1562 1561 1559 1557 1555
1559 1558 1556 1556 1555 1554 1552 1547 1547 1533 1536 1535 1534 1533 1533 1533 1534 1536 1537 1538 1539 1542 1544 1547 1548 1551 1553 1555 1557 1559 1561 1562 1563 1563 1563 1564 1564 1563 1563 1562 1562 1561 1560 1559 1558 1557 1555 1554 1552
1559 1556 1552 1553 1553 1552 1551 1541 1535 1528 1530 1529 1527 1526 1526 1525 1527 1527 1528 1530 1533 1535 1538 1540 1542 1544 1546 1549 1552 1554 1555 1556 1557 1558 1558 1558 1558 1558 1558 1558 1557 1556 1555 1554 1553 1552 1551 1549 1547
1556 1551 1546 1546 1550 1550 1552 1532 1523 1525 1525 1523 1521 1520 1518 1517 1517 1518 1521 1523 1526 1528 1530 1533 1535 1537 1539 1542 1545 1547 1549 1550 1551 1551 1552 1552 1552 1553 1552 1552 1552 1551 1550 1550 1548 1547 1546 1544 1543
1549 1545 1543 1543 1547 1548 1547 1529 1516 1521 1521 1517 1514 1513 1511 1510 1509 1510 1513 1515 1518 1520 1523 1526 1528 1530 1533 1536 1538 1540 1542 1543 1543 1544 1544 1545 1546 1546 1546 1546 1546 1545 1545 1544 1543 1542 1540 1539 1537
1547 1545 1542 1541 1541 1546 1540 1526 1511 1512 1514 1509 1506 1505 1504 1503 1501 1504 1506 1508 1511 1513 1516 1518 1521 1523 1526 1528 1530 1531 1532 1533 1534 1534 1536 1537 1538 1539 1539 1539 1539 1539 1538 1538 1537 1536 1534 1533 1531
1549 1547 1543 1538 1540 1544 1532 1520 1505 1501 1504 1501 1499 1498 1496 1495 1497 1499 1499 1501 1503 1505 1507 1510 1512 1515 1517 1518 1519 1520 1521 1523 1524 1525 1527 1529 1530 1531 1531 1531 1531 1531 1531 1531 1530 1529 1528 1526 1525
1550 1547 1540 1535 1542 1542 1530 1517 1501 1497 1497 1496 1494 1492 1490 1489 1490 1492 1492 1493 1495 1497 1500 1502 1504 1507 1508 1509 1511 1513 1515 1515 1516 1517 1518 1520 1521 1522 1522 1523 1523 1523 1523 1523 1523 1522 1522 1520 1519
1546 1545 1539 1540 1538 1538 1537 1511 1495 1491 1495 1494 1492 1489 1486 1485 1485 1486 1486 1486 1488 1490 1492 1495 1497 1499 1501 1503 1505 1505 1506 1505 1505 1506 1507 1509 1511 1512 1513 1514 1514 1514 1514 1514 1514 1514 1514 1514 1512
1542 1543 1545 1545 1541 1531 1537 1526 1497 1490 1491 1490 1489 1488 1486 1484 1482 1482 1481 1482 1483 1484 1487 1489 1491 1493 1494 1495 1495 1494 1494 1493 1494 1496 1498 1499 1500 1501 1502 1504 1505 1505 1505 1505 1505 1506 1506 1506 1506
1542 1546 1545 1544 1541 1537 1532 1531 1503 1491 1489 1488 1489 1489 1487 1485 1482 1481 1479 1479 1479 1480 1481 1483 1484 1485 1486 1486 1486 1486 1485 1486 1488 1488 1487 1488 1488 1490 1491 1492 1493 1494 1495 1496 1496 1497 1497 1497 1498
1546 1545 1545 1544 1539 1534 1529 1528 1507 1489 1491 1491 1490 1490 1488 1486 1483 1481 1479 1477 1476 1475 1475 1475 1476 1476 1476 1476 1476 1476 1476 1477 1478 1477 1476 1476 1476 1477 1478 1480 1481 1482 1484 1485 1487 1487 1488 1488 1489
1545 1540 1533 1530 1529 1525 1533 1531 1508 1489 1491 1493 1493 1491 1489 1486 1483 1480 1477 1474 1472 1471 1469 1468 1468 1467 1467 1467 1467 1467 1467 1468 1468 1468 1467 1466 1465 1464 1465 1467 1468 1470 1472 1475 1477 1477 1478 1479 1480
1543 1541 1538 1538 1530 1523 1531 1525 1497 1488 1491 1492 1493 1491 1489 1486 1482 1478 1474 1471 1468 1466 1464 1462 1461 1460 1459 1458 1458 1458 1458 1458 1458 1458 1457 1455 1454 1454 1455 1455 1457 1459 1461 1464 1466 1467 1469 1470 1470
1542 1541 1541 1538 1534 1538 1521 1513 1499 1486 1486 1489 1489 1488 1487 1484 1480 1476 1471 1468 1465 1462 1459 1457 1455 1453 1452 1451 1450 1450 1449 1449 1448 1448 1447 1445 1444 1444 1444 1444 1445 1447 1450 1452 1455 1456 1459 1460 1461
1545 1542 1543 1539 1537 1530 1518 1514 1500 1485 1483 1485 1487 1487 1485 1483 1478 1474 1470 1466 1463 1460 1456 1453 1451 1448 1447 1445 1443 1442 1441 1440 1439 1438 1437 1435 1434 1434 1433 1432 1433 1435 1437 1440 1443 1446 1449 1450 1452
1544 1544 1540 1535 1535 1530 1519 1507 1491 1488 1488 1489 1489 1487 1485 1482 1478 1473 1470 1466 1463 1459 1456 1452 1449 1446 1443 1441 1439 1437 1435 1433 1431 1429 1427 1426 1424 1423 1422 1422 1423 1424 1426 1429 1432 1435 1438 1440 1442
1538 1535 1535 1534 1525 1528 1520 1505 1486 1488 1490 1491 1489 1487 1484 1481 1477 1474 1470 1466 1462 1459 1455 1451 1447 1444 1441 1438 1435 1432 1429 1426 1423 1421 1419 1416 1414 1413 1412 1412 1412 1413 1415 1418 1421 1424 1427 1429 1432